Location: Mount Cross
(36.6390°N, 79.4878°W)
Time: 15:28:15
(UTC+00:00)

deb Explorer IX - All Passes

Search period start: 30 March 2023 00:00
Search period end: 09 April 2023 00:00
Orbit: 536 x 1029 km, 38.8° (Epoch: 28 March)

Date Brightness Start Highest point End Pass type
(mag) Time Alt. Az. Time Alt. Az. Time Alt. Az.
30 Mar - 09:17:32 10° SSW 09:21:53 31° SSE 09:25:47 10° E visible
30 Mar - 11:03:01 10° WSW 11:07:36 90° WNW 11:11:46 10° ENE daylight
30 Mar - 12:49:25 10° W 12:53:37 64° N 12:57:37 10° E daylight
30 Mar - 14:35:28 10° WNW 14:39:30 67° SSW 14:43:34 10° ESE daylight
30 Mar - 16:22:12 10° WSW 16:24:57 17° SSW 16:27:46 10° S daylight
31 Mar - 08:42:13 10° SSW 08:46:36 28° SSE 08:50:30 10° E visible
31 Mar - 10:27:33 10° WSW 10:32:19 84° SSE 10:36:35 10° ENE visible
31 Mar - 12:14:00 10° W 12:18:20 64° N 12:22:23 10° E daylight
31 Mar - 14:00:09 10° WNW 14:04:16 75° SSW 14:08:18 10° ESE daylight
31 Mar - 15:46:44 10° W 15:49:43 20° SSW 15:52:47 10° SSE daylight
01 Apr - 08:06:53 10° SSW 08:11:15 25° SSE 08:15:10 10° E visible
01 Apr - 09:52:00 10° WSW 09:56:59 77° SSE 10:01:21 10° ENE visible
01 Apr - 11:38:30 10° W 11:43:00 64° N 11:47:06 10° E daylight
01 Apr - 13:24:46 10° WNW 13:28:58 83° SSW 13:33:00 10° ESE daylight
01 Apr - 15:11:14 10° W 15:14:27 23° SSW 15:17:43 10° SSE daylight
02 Apr - 07:31:31 10° SSW 07:35:50 23° SSE 07:39:44 10° E visible
02 Apr - 09:16:24 10° WSW 09:21:35 70° SSE 09:26:04 10° ENE visible
02 Apr - 11:02:55 10° W 11:07:36 66° N 11:11:47 10° E daylight
02 Apr - 12:49:18 10° WNW 12:53:37 89° NNE 12:57:40 10° ESE daylight
02 Apr - 14:35:42 10° W 14:39:09 27° SSW 14:42:35 10° SSE daylight
03 Apr - 06:56:08 10° SSW 07:00:21 21° SSE 07:04:12 10° E visible
03 Apr - 08:40:44 10° WSW 08:46:06 64° SSE 08:50:44 10° ENE visible
03 Apr - 10:27:14 10° W 10:32:08 68° N 10:36:26 10° ENE visible
03 Apr - 12:13:44 10° WNW 12:18:12 83° NNE 12:22:18 10° ESE daylight
03 Apr - 14:00:06 10° W 14:03:48 31° SSW 14:07:23 10° SE daylight
04 Apr - 06:20:45 10° S 06:24:49 19° SE 06:28:34 10° ESE night (unlit)
04 Apr - 08:05:01 10° SW 08:10:34 59° SSE 08:15:21 10° E visible
04 Apr - 09:51:29 10° W 09:56:36 71° N 10:01:04 10° ENE visible
04 Apr - 11:38:05 10° WNW 11:42:44 78° N 11:46:54 10° E daylight
04 Apr - 13:24:27 10° W 13:28:24 36° SSW 13:32:08 10° SE daylight
05 Apr - 05:45:23 10° S 05:49:13 17° SE 05:52:47 10° ESE night (unlit)
05 Apr - 07:29:16 10° SW 07:34:58 54° SSE 07:39:53 10° E visible
05 Apr - 09:15:39 10° W 09:21:00 74° N 09:25:38 10° ENE visible
05 Apr - 11:02:21 10° WNW 11:07:11 74° N 11:11:27 10° E daylight
05 Apr - 12:48:46 10° W 12:52:56 43° SSW 12:56:49 10° SE daylight
06 Apr - 05:10:04 10° S 05:13:34 15° SE 05:16:52 10° ESE night (unlit)
06 Apr - 06:53:27 10° SW 06:59:16 49° SSE 07:04:21 10° E visible
06 Apr - 08:39:44 10° W 08:45:20 78° N 08:50:10 10° ENE visible
06 Apr - 10:26:31 10° WNW 10:31:34 72° N 10:35:58 10° E visible
06 Apr - 12:12:59 10° W 12:17:25 50° SSW 12:21:26 10° SE daylight
06 Apr - 14:01:33 10° SW 14:02:32 11° SW 14:03:31 10° SSW daylight
07 Apr - 04:34:51 10° S 04:37:52 14° SE 04:40:44 10° ESE night (unlit)
07 Apr - 06:17:37 10° SW 06:23:32 45° SSE 06:28:44 10° E visible
07 Apr - 08:03:46 10° W 08:09:36 83° NNW 08:14:37 10° ENE visible
07 Apr - 09:50:36 10° W 09:55:52 70° N 10:00:25 10° E visible
07 Apr - 11:37:08 10° WNW 11:41:49 58° SSW 11:46:00 10° SE daylight
07 Apr - 13:24:52 10° WSW 13:27:00 13° SW 13:29:04 10° S daylight
08 Apr - 03:59:50 10° SSE 04:02:05 12° SE 04:04:17 10° ESE night (unlit)
08 Apr - 05:41:46 10° SW 05:47:44 41° SSE 05:53:02 10° E night (unlit)
08 Apr - 07:27:44 10° WSW 07:33:48 88° NNW 07:39:01 10° ENE visible
08 Apr - 09:14:37 10° W 09:20:07 69° N 09:24:50 10° E visible
08 Apr - 11:01:13 10° WNW 11:06:09 67° SSW 11:10:29 10° ESE daylight
08 Apr - 12:48:34 10° WSW 12:51:26 17° SW 12:54:09 10° S daylight
